Flag for Nicaragua Weather past 2 weeks in Managua, Nicaragua

Now
88 °F

Partly sunny.


Feels Like: 90 °F
Forecast: 77 / 95 °F
Wind: 14 mph from East

Location: Managua A. C. Sandino

Current Time: May 27, 2015 at 11:02:00 AM

Latest Report: May 27, 2015 at 10:00 AM


Visibility: N/A

Pressure: 29.89 "Hg

Humidity: 49%

Dew point: 66 °F

Location of ManaguaLocation

Historic Weather in Managua — Graph

°F

Managua temperature yesterday

Maximum temperature yesterday: 95 °F (at 3:00 PM)
Minimum temperature yesterday: 77 °F (at 4:00 AM)
Average temperature yesterday: 86 °F

Past Weeks' High & Low Weather Summary

 TemperatureHumidityPressure
High97 °F (May 12, 1:00 PM)94% (May 17, 5:00 PM)29.98 "Hg (May 17, 5:00 PM)
Low73 °F (May 18, 12:00 AM)36% (May 16, 1:00 PM)29.71 "Hg (May 12, 4:00 PM)
Average85 °F64%29.85 "Hg
* Reported May 12 10:00 AM — May 27 10:00 AM, Managua, Weather by CustomWeather, © 2015

Note: Actual official high and low records may vary slightly from our data, if they occured in-between our weather recording intervals... More about our weather records

Advertising

Managua weather history for previous 24 hours

 ConditionsComfort  
Time TempWeatherWind HumidityBarometerVisibility
10:00 AM
Wed, May 27
88 °FPartly sunny.14 mph49%29.89 "HgN/A
9:00 AM86 °FPartly sunny.12 mph59%29.92 "HgN/A
8:00 AM82 °FPartly sunny.5 mph70%29.92 "HgN/A
7:00 AM79 °FPartly sunny.5 mph74%29.89 "HgN/A
6:00 AM75 °FPartly sunny.5 mph78%29.89 "HgN/A
5:00 AM73 °FPassing clouds.No wind83%29.89 "HgN/A
4:00 AM75 °FPassing clouds.No wind78%29.86 "HgN/A
3:00 AM75 °FPassing clouds.5 mph78%29.86 "HgN/A
2:00 AM79 °FPassing clouds.5 mph70%29.86 "HgN/A
1:00 AM81 °FPassing clouds.7 mph66%29.89 "HgN/A
12:00 AM82 °FPassing clouds.9 mph66%29.89 "HgN/A
11:00 PM
Tue, May 26
82 °FPassing clouds.12 mph66%29.89 "HgN/A
10:00 PM84 °FPassing clouds.9 mph62%29.89 "HgN/A
9:00 PM84 °FPassing clouds.12 mph58%29.89 "HgN/A
8:00 PM86 °FPassing clouds.9 mph55%29.86 "HgN/A
7:00 PM88 °FPassing clouds.14 mph52%29.83 "HgN/A
6:00 PM90 °FScattered clouds.12 mph49%29.80 "HgN/A
5:00 PM91 °FPassing clouds.12 mph46%29.80 "HgN/A
4:00 PM93 °FScattered clouds.12 mph44%29.77 "HgN/A
3:00 PM95 °FPassing clouds.14 mph39%29.77 "HgN/A
2:00 PM93 °FScattered clouds.12 mph41%29.80 "HgN/A
1:00 PM93 °FScattered clouds.16 mph41%29.83 "HgN/A
12:00 PM91 °FScattered clouds.12 mph44%29.86 "HgN/A
11:00 AM90 °FScattered clouds.14 mph46%29.89 "HgN/A
Weather by CustomWeather, © 2015

See weather overviewHow to use our weather pages